Overview Statistics Trail Chart Weather Telemetry Raw packets
 

This is the latest recevied weather packets stored in our database for station/object HS2XQB-3. If no packets are shown the sender has not sent any weather packets the latest 10 day(s).

<< 8 9 10 11 12 13 14 >>
Time Temp. Humidity Pressure Rain* Wind** Luminosity Snow
1788269325 33.33° C 60% 1007 hPa - - 0 W/m² -
1788267503 33.33° C 59% 1005 hPa - - 0 W/m² -
1788265681 33.33° C 57% 1005 hPa - - 0 W/m² -
1788263859 33.33° C 56% 1005 hPa - - 0 W/m² -
1788262037 34.44° C 54% 1004 hPa - - 0 W/m² -
1788260215 35° C 53% 1004 hPa - - 0 W/m² -
1788258393 36.11° C 51% 1003 hPa - - 0 W/m² -
1788256570 36.67° C 48% 1003 hPa - - 0 W/m² -
1788254748 37.22° C 47% 1003 hPa - - 0 W/m² -
1788252926 37.78° C 48% 1003 hPa - - 0 W/m² -
1788251104 37.78° C 48% 1003 hPa - - 0 W/m² -
1788249282 37.78° C 47% 1004 hPa - - 0 W/m² -
1788247460 38.89° C 43% 1004 hPa - - 0 W/m² -
1788245639 38.89° C 44% 1005 hPa - - 0 W/m² -
1788243815 38.33° C 49% 1005 hPa - - 0 W/m² -
1788241993 38.33° C 51% 1005 hPa - - 0 W/m² -
1788240171 38.33° C 51% 1006 hPa - - 0 W/m² -
1788238349 37.78° C 53% 1006 hPa - - 0 W/m² -
1788236527 37.78° C 55% 1006 hPa - - 0 W/m² -
1788234705 37.22° C 57% 1007 hPa - - 0 W/m² -
1788232883 36.11° C 61% 1007 hPa - - 0 W/m² -
1788231061 35° C 65% 1007 hPa - - 0 W/m² -
1788229239 33.89° C 69% 1007 hPa - - 0 W/m² -
1788227416 32.78° C 73% 1006 hPa - - 0 W/m² -
1788225594 31.67° C 76% 1006 hPa - - 0 W/m² -

* Rain since midnight (hover to see other rain measurements)
** Current wind speed in m/s (hover to see current wind gust speed)